K5RWS Weather Reports


time (UTC)temp
F
wind
direction
speed
knots
gust
knots
rain 1hr
in
rain 24hr
in
rain mn
in
humidity
%
barometer
mb
20260906232204 93 251 2.6 3.5 0.00 0.00 0.00 19 1018.8
20260906231659 95 209 7.8 8.7 0.00 0.00 0.00 19 1018.7
20260906231154 94 214 0.0 6.1 0.00 0.00 0.00 19 1018.7
20260906230653 94 215 6.1 7.8 0.00 0.00 0.00 19 1018.6
20260906230148 95 200 2.6 5.2 0.00 0.00 0.00 19 1018.9
20260906225642 94 241 7.0 8.7 0.00 0.00 0.00 19 1018.7
20260906225138 94 124 3.5 7.8 0.00 0.00 0.00 20 1018.7
20260906224632 96 197 0.9 2.6 0.00 0.00 0.00 19 1018.8
20260906224129 95 209 1.7 5.2 0.00 0.00 0.00 18 1018.7
20260906223625 95 155 0.9 2.6 0.00 0.00 0.00 19 1018.7
20260906223125 95 156 0.9 5.2 0.00 0.00 0.00 19 1018.8
20260906222624 95 163 2.6 7.0 0.00 0.00 0.00 19 1018.9
20260906222122 94 206 9.6 13.0 0.00 0.00 0.00 20 1018.8
20260906221621 95 243 4.3 9.6 0.00 0.00 0.00 19 1018.9
20260906221115 95 311 0.9 2.6 0.00 0.00 0.00 19 1018.9
20260906220611 95 263 1.7 3.5 0.00 0.00 0.00 19 1019.0
20260906220106 95 219 2.6 3.5 0.00 0.00 0.00 19 1019.0
20260906215605 95 234 1.7 6.1 0.00 0.00 0.00 19 1019.3
20260906215103 93 117 0.9 3.5 0.00 0.00 0.00 19 1019.3
20260906214601 94 236 1.7 2.6 0.00 0.00 0.00 18 1019.6
20260906214057 95 243 1.7 1.7 0.00 0.00 0.00 20 1019.6
20260906213556 96 234 3.5 6.1 0.00 0.00 0.00 18 1019.7
20260906213051 94 199 0.0 0.9 0.00 0.00 0.00 19 1019.7
20260906212544 93 244 6.1 8.7 0.00 0.00 0.00 19 1020.1
20260906212039 94 256 4.3 7.0 0.00 0.00 0.00 18 1020.0
20260906211533 95 282 7.0 7.8 0.00 0.00 0.00 17 1019.8
20260906211029 95 238 3.5 7.8 0.00 0.00 0.00 18 1020.1
20260906210523 95 228 2.6 5.2 0.00 0.00 0.00 18 1020.1
20260906210018 94 189 1.7 3.5 0.00 0.00 0.00 19 1020.2
20260906205514 92 293 1.7 5.2 0.00 0.00 0.00 18 1020.6
20260906205009 93 281 6.1 7.8 0.00 0.00 0.00 18 1020.4
20260906204508 93 234 0.0 2.6 0.00 0.00 0.00 18 1020.6
20260906204003 94 225 3.5 6.1 0.00 0.00 0.00 18 1020.7
20260906203458 93 265 3.5 7.0 0.00 0.00 0.00 18 1020.8
20260906202955 96 167 1.7 5.2 0.00 0.00 0.00 18 1020.9
20260906202448 96 112 0.9 3.5 0.00 0.00 0.00 18 1020.8
20260906201943 94 284 1.7 2.6 0.00 0.00 0.00 19 1020.8
20260906201438 91 125 2.6 3.5 0.00 0.00 0.00 19 1020.9
20260906200932 93 251 2.6 7.0 0.00 0.00 0.00 19 1021.0
20260906200423 94 284 4.3 5.2 0.00 0.00 0.00 18 1020.9
20260906195918 92 282 2.6 5.2 0.00 0.00 0.00 19 1021.1
20260906195414 93 289 2.6 2.6 0.00 0.00 0.00 19 1021.0
20260906194910 91 57 2.6 6.1 0.00 0.00 0.00 20 1021.3
20260906194405 91 269 4.3 6.1 0.00 0.00 0.00 20 1021.4
20260906193901 93 317 3.5 3.5 0.00 0.00 0.00 19 1021.5
20260906193355 94 247 0.9 2.6 0.00 0.00 0.00 19 1021.7
20260906192851 92 231 2.6 5.2 0.00 0.00 0.00 19 1021.7
20260906192345 92 21 2.6 3.5 0.00 0.00 0.00 19 1021.8
20260906191844 92 62 0.0 1.7 0.00 0.00 0.00 18 1021.7
20260906191338 90 86 1.7 5.2 0.00 0.00 0.00 20 1022.1
20260906190833 91 47 3.5 5.2 0.00 0.00 0.00 19 1022.0
20260906190327 90 22 1.7 5.2 0.00 0.00 0.00 18 1022.3
20260906185827 91 354 1.7 5.2 0.00 0.00 0.00 19 1022.2
20260906185326 91 47 1.7 3.5 0.00 0.00 0.00 18 1022.2
20260906184820 90 217 0.9 1.7 0.00 0.00 0.00 19 1022.7
20260906184316 90 73 3.5 6.1 0.00 0.00 0.00 19 1022.2
20260906183811 91 26 2.6 5.2 0.00 0.00 0.00 20 1022.7
20260906183308 91 121 0.9 1.7 0.00 0.00 0.00 21 1022.7
20260906182808 91 124 0.9 1.7 0.00 0.00 0.00 20 1023.0
20260906182306 89 295 3.5 5.2 0.00 0.00 0.00 20 1023.0
20260906181758 88 320 2.6 3.5 0.00 0.00 0.00 20 1023.0
20260906181255 87 345 0.9 1.7 0.00 0.00 0.00 21 1023.4
20260906180754 87 17 0.9 3.5 0.00 0.00 0.00 22 1023.2
20260906180249 88 83 1.7 1.7 0.00 0.00 0.00 22 1023.2
20260906175746 89 71 1.7 2.6 0.00 0.00 0.00 22 1023.2
20260906175243 88 348 1.7 2.6 0.00 0.00 0.00 23 1023.4
20260906174741 87 43 2.6 3.5 0.00 0.00 0.00 24 1023.5
20260906174240 87 40 3.5 7.0 0.00 0.00 0.00 25 1023.6
20260906173736 86 53 1.7 6.1 0.00 0.00 0.00 26 1023.7
20260906173232 87 112 0.9 5.2 0.00 0.00 0.00 25 1023.7
20260906172731 85 77 0.9 3.5 0.00 0.00 0.00 27 1023.7
20260906172226 84 36 0.9 5.2 0.00 0.00 0.00 27 1023.5
20260906171727 85 5 2.6 5.2 0.00 0.00 0.00 28 1023.8
20260906171222 84 70 3.5 6.1 0.00 0.00 0.00 28 1023.8
20260906170718 84 83 0.9 2.6 0.00 0.00 0.00 28 1023.9
20260906170213 83 55 3.5 7.0 0.00 0.00 0.00 29 1023.8
20260906165709 84 56 6.1 8.7 0.00 0.00 0.00 30 1024.1
20260906165204 83 26 2.6 6.1 0.00 0.00 0.00 30 1023.9
20260906164703 82 24 4.3 7.8 0.00 0.00 0.00 29 1024.1
20260906164159 81 41 3.5 7.0 0.00 0.00 0.00 30 1024.1
20260906163654 82 21 4.3 8.7 0.00 0.00 0.00 30 1023.9
20260906163150 81 36 3.5 7.8 0.00 0.00 0.00 30 1023.9
20260906162647 80 20 5.2 6.1 0.00 0.00 0.00 32 1024.1
20260906162146 80 23 3.5 7.0 0.00 0.00 0.00 32 1023.9
20260906161641 80 21 4.3 8.7 0.00 0.00 0.00 32 1024.1
20260906161140 80 7 4.3 7.8 0.00 0.00 0.00 32 1024.1
20260906160639 81 0 5.2 7.0 0.00 0.00 0.00 31 1024.2
20260906160133 80 22 3.5 8.7 0.00 0.00 0.00 32 1023.8
20260906155631 80 341 3.5 5.2 0.00 0.00 0.00 31 1024.1
20260906155127 79 352 6.1 7.0 0.00 0.00 0.00 32 1024.1
20260906154621 80 26 6.1 7.8 0.00 0.00 0.00 32 1023.8
20260906154121 79 26 4.3 7.8 0.00 0.00 0.00 32 1023.9
20260906153620 79 11 2.6 7.0 0.00 0.00 0.00 32 1023.8
20260906153114 78 0 4.3 6.1 0.00 0.00 0.00 32 1024.1
20260906152610 78 359 3.5 6.1 0.00 0.00 0.00 32 1023.7
20260906152103 77 326 3.5 7.0 0.00 0.00 0.00 32 1023.8
20260906151558 77 307 7.0 7.8 0.00 0.00 0.00 32 1023.8
20260906151054 76 306 4.3 7.0 0.00 0.00 0.00 32 1023.9
20260906150549 76 316 7.0 7.8 0.00 0.00 0.00 33 1024.1
20260906150044 76 353 7.0 9.6 0.00 0.00 0.00 33 1023.9
20260906145543 75 326 7.0 9.6 0.00 0.00 0.00 34 1023.8
20260906145038 75 323 4.3 7.8 0.00 0.00 0.00 33 1023.9
20260906144532 75 308 5.2 7.8 0.00 0.00 0.00 33 1023.8
20260906144028 75 231 6.1 11.3 0.00 0.00 0.00 33 1023.8
20260906143523 75 314 7.8 9.6 0.00 0.00 0.00 33 1024.1
20260906143019 74 304 7.0 11.3 0.00 0.00 0.00 33 1023.8
20260906142513 73 324 7.8 13.0 0.00 0.00 0.00 34 1023.9
20260906142009 73 292 4.3 11.3 0.00 0.00 0.00 34 1023.9
20260906141508 74 302 9.6 13.0 0.00 0.00 0.00 34 1023.7
20260906141003 74 344 5.2 7.8 0.00 0.00 0.00 33 1023.7
20260906140457 75 337 2.6 7.0 0.00 0.00 0.00 33 1023.8
20260906135955 75 10 3.5 7.0 0.00 0.00 0.00 33 1023.4
20260906135454 74 335 3.5 3.5 0.00 0.00 0.00 33 1023.7
20260906134949 73 31 3.5 5.2 0.00 0.00 0.00 34 1023.5
20260906134444 73 30 0.9 3.5 0.00 0.00 0.00 34 1023.8
20260906133939 73 67 0.0 1.7 0.00 0.00 0.00 34 1023.5
20260906133435 73 46 0.9 1.7 0.00 0.00 0.00 34 1023.4
20260906132930 73 271 3.5 5.2 0.00 0.00 0.00 34 1023.1
20260906132425 71 325 3.5 3.5 0.00 0.00 0.00 35 1023.5
20260906131920 69 316 1.7 3.5 0.00 0.00 0.00 37 1023.4
20260906131416 69 122 0.0 0.0 0.00 0.00 0.00 38 1023.2
20260906130912 70 88 1.7 2.6 0.00 0.00 0.00 37 1023.4
20260906130411 71 156 1.7 2.6 0.00 0.00 0.00 36 1023.2
20260906125905 71 308 4.3 7.0 0.00 0.00 0.00 36 1023.1
20260906125402 71 309 6.1 7.0 0.00 0.00 0.00 36 1023.0
20260906124857 70 315 4.3 7.0 0.00 0.00 0.00 37 1023.0
20260906124353 70 336 3.5 6.1 0.00 0.00 0.00 36 1022.8
20260906123852 70 298 3.5 6.1 0.00 0.00 0.00 36 1023.0
20260906123347 71 308 3.5 5.2 0.00 0.00 0.00 36 1022.9
20260906122847 70 328 3.5 3.5 0.00 0.00 0.00 36 1023.1
20260906122341 69 301 2.6 5.2 0.00 0.00 0.00 37 1023.0
20260906121838 68 302 1.7 1.7 0.00 0.00 0.00 38 1023.1
20260906121334 68 82 0.0 0.0 0.00 0.00 0.00 39 1023.1
20260906120830 69 342 0.0 0.9 0.00 0.00 0.00 38 1023.1
20260906120326 68 355 1.7 1.7 0.00 0.00 0.00 38 1023.1
20260906115822 69 358 0.0 1.7 0.00 0.00 0.00 38 1023.0
20260906115317 68 32 1.7 2.6 0.00 0.00 0.00 38 1022.8
20260906114816 68 71 0.9 1.7 0.00 0.00 0.00 38 1022.8
20260906114311 68 130 0.9 1.7 0.00 0.00 0.00 39 1023.0
20260906113806 68 173 0.0 0.9 0.00 0.00 0.00 39 1023.1
20260906113305 68 201 0.0 0.9 0.00 0.00 0.00 39 1022.8
20260906112800 69 210 0.0 0.9 0.00 0.00 0.00 38 1022.8
20260906112251 69 198 0.0 0.0 0.00 0.00 0.00 38 1022.9
20260906111751 70 186 0.0 0.9 0.00 0.00 0.00 37 1023.0
20260906111250 71 202 0.0 0.0 0.00 0.00 0.00 36 1022.9
20260906110745 71 250 0.9 0.9 0.00 0.00 0.00 36 1022.9
20260906110241 71 334 0.0 0.9 0.00 0.00 0.00 36 1022.8
20260906105740 70 251 0.9 0.9 0.00 0.00 0.00 36 1022.7
20260906105236 71 219 0.9 2.6 0.00 0.00 0.00 36 1022.9
20260906104731 71 202 0.9 1.7 0.00 0.00 0.00 36 1022.8
20260906104230 71 179 0.0 0.0 0.00 0.00 0.00 36 1022.7
20260906103728 71 160 0.9 0.9 0.00 0.00 0.00 36 1022.8
20260906103222 72 127 0.0 0.0 0.00 0.00 0.00 36 1022.5
20260906102718 72 65 0.9 1.7 0.00 0.00 0.00 35 1022.8
20260906102217 73 280 0.9 1.7 0.00 0.00 0.00 34 1022.4
20260906101712 73 286 1.7 3.5 0.00 0.00 0.00 34 1022.5
20260906101207 73 299 2.6 3.5 0.00 0.00 0.00 34 1022.5
20260906100702 74 303 4.3 6.1 0.00 0.00 0.00 34 1022.5
20260906100157 73 313 2.6 6.1 0.00 0.00 0.00 34 1022.5
20260906095652 73 258 2.6 3.5 0.00 0.00 0.00 34 1022.4
20260906095147 73 294 2.6 5.2 0.00 0.00 0.00 35 1022.3
20260906094646 73 252 1.7 1.7 0.00 0.00 0.00 35 1022.5
20260906094142 72 216 0.0 0.9 0.00 0.00 0.00 36 1022.5
20260906093637 72 213 0.0 0.9 0.00 0.00 0.00 35 1022.3
20260906093132 72 200 0.0 0.9 0.00 0.00 0.00 35 1022.3
20260906092627 73 119 1.7 1.7 0.00 0.00 0.00 35 1022.3
20260906092122 73 272 0.0 1.7 0.00 0.00 0.00 34 1022.3
20260906091618 73 282 0.9 1.7 0.00 0.00 0.00 34 1022.3
20260906091115 73 261 0.9 0.9 0.00 0.00 0.00 34 1022.2
20260906090614 73 4 1.7 2.6 0.00 0.00 0.00 34 1022.4
20260906090109 74 21 0.0 0.9 0.00 0.00 0.00 34 1022.2
20260906085608 74 0 0.9 0.9 0.00 0.00 0.00 34 1022.2
20260906085103 75 344 0.9 2.6 0.00 0.00 0.00 33 1022.3
20260906084557 74 296 1.7 3.5 0.00 0.00 0.00 33 1022.1
20260906084056 74 253 1.7 3.5 0.00 0.00 0.00 33 1022.2
20260906083552 74 269 2.6 3.5 0.00 0.00 0.00 33 1022.5
20260906083051 74 273 2.6 2.6 0.00 0.00 0.00 34 1022.2
20260906082547 74 293 2.6 5.2 0.00 0.00 0.00 34 1022.3
20260906082043 74 273 2.6 5.2 0.00 0.00 0.00 33 1022.3
20260906081538 74 270 3.5 5.2 0.00 0.00 0.00 33 1022.3
20260906081033 74 255 2.6 3.5 0.00 0.00 0.00 33 1022.3
20260906080530 74 262 2.6 3.5 0.00 0.00 0.00 33 1022.4
20260906080025 73 254 1.7 1.7 0.00 0.00 0.00 34 1022.7
20260906075519 74 252 0.0 0.9 0.00 0.00 0.00 34 1022.5
20260906075014 75 243 0.9 1.7 0.00 0.00 0.00 33 1022.3
20260906074509 74 253 1.7 2.6 0.00 0.00 0.00 34 1022.5
20260906074007 74 232 0.9 0.9 0.00 0.00 0.00 34 1022.9
20260906073502 74 258 2.6 2.6 0.00 0.00 0.00 33 1022.8
20260906072958 75 21 0.9 0.9 0.00 0.00 0.00 33 1022.8
20260906072453 75 331 0.9 1.7 0.00 0.00 0.00 33 1022.8
20260906071949 75 28 0.9 1.7 0.00 0.00 0.00 33 1022.8
20260906071446 76 243 0.0 0.9 0.00 0.00 0.00 32 1022.8
20260906070941 76 275 0.9 0.9 0.00 0.00 0.00 32 1022.7
20260906070437 75 244 0.9 0.9 0.00 0.00 0.00 33 1022.4
20260906065932 76 224 0.0 0.0 0.00 0.00 0.00 32 1022.8
20260906065427 78 260 0.9 1.7 0.00 0.00 0.00 31 1022.7
20260906064922 79 44 0.9 2.6 0.00 0.00 0.00 30 1022.9
20260906064419 78 16 1.7 2.6 0.00 0.00 0.00 31 1022.9
20260906063918 78 39 2.6 5.2 0.00 0.00 0.00 30 1022.7
20260906063414 78 72 2.6 5.2 0.00 0.00 0.00 31 1022.4
20260906062909 77 104 1.7 2.6 0.00 0.00 0.00 31 1022.4
20260906062409 76 92 0.9 1.7 0.00 0.00 0.00 33 1022.4
20260906061903 75 155 0.0 0.0 0.00 0.00 0.00 33 1022.4
20260906061400 74 221 0.9 0.9 0.00 0.00 0.00 34 1022.3
20260906060854 75 117 0.9 0.9 0.00 0.00 0.00 34 1022.2
20260906060352 75 199 0.0 0.0 0.00 0.00 0.00 33 1022.2
20260906055847 76 184 0.0 0.0 0.00 0.00 0.00 33 1022.2
20260906055343 76 89 1.7 1.7 0.00 0.00 0.00 32 1022.3
20260906054838 76 113 0.9 1.7 0.00 0.00 0.00 32 1022.1
20260906054332 76 107 0.9 1.7 0.00 0.00 0.00 32 1022.0
20260906053829 77 212 0.0 0.9 0.00 0.00 0.00 32 1022.1
20260906053325 77 251 0.9 2.6 0.00 0.00 0.00 32 1022.1
20260906052820 78 271 3.5 3.5 0.00 0.00 0.00 31 1022.1
20260906052316 79 286 3.5 6.1 0.00 0.00 0.00 30 1022.1
20260906051813 79 309 3.5 6.1 0.00 0.00 0.00 30 1022.1
20260906051312 80 262 6.1 7.8 0.00 0.00 0.00 30 1021.8
20260906050808 79 293 5.2 8.7 0.00 0.00 0.00 29 1021.7
20260906050303 80 300 4.3 5.2 0.00 0.00 0.00 30 1021.8
20260906045801 80 309 6.1 7.0 0.00 0.00 0.00 29 1022.0
20260906045256 80 297 4.3 6.1 0.00 0.00 0.00 29 1022.0
20260906044753 80 291 3.5 5.2 0.00 0.00 0.00 29 1021.8
20260906044247 80 268 3.5 6.1 0.00 0.00 0.00 29 1022.0
20260906043743 80 279 3.5 6.1 0.00 0.00 0.00 29 1021.8
20260906043239 79 271 4.3 5.2 0.00 0.00 0.00 30 1022.0
20260906042738 78 276 2.6 3.5 0.00 0.00 0.00 30 1022.1
20260906042237 78 281 3.5 3.5 0.00 0.00 0.00 31 1022.0
20260906041733 80 264 3.5 3.5 0.00 0.00 0.00 30 1021.7
20260906041228 80 293 2.6 5.2 0.00 0.00 0.00 29 1022.0
20260906040724 80 274 3.5 6.1 0.00 0.00 0.00 29 1021.8
20260906040219 80 302 2.6 6.1 0.00 0.00 0.00 29 1021.7
20260906035715 80 283 2.6 5.2 0.00 0.00 0.00 29 1021.8
20260906035211 81 270 2.6 2.6 0.00 0.00 0.00 29 1021.7
20260906034710 81 295 3.5 5.2 0.00 0.00 0.00 29 1022.1
20260906034205 81 316 3.5 5.2 0.00 0.00 0.00 29 1022.0
20260906033701 81 270 2.6 6.1 0.00 0.00 0.00 29 1022.0
20260906033200 81 250 3.5 5.2 0.00 0.00 0.00 29 1021.6
20260906032657 80 298 5.2 6.1 0.00 0.00 0.00 30 1021.8
20260906032152 80 294 4.3 6.1 0.00 0.00 0.00 30 1021.8
20260906031647 80 279 4.3 7.0 0.00 0.00 0.00 30 1021.5
20260906031142 80 276 3.5 5.2 0.00 0.00 0.00 30 1021.4
20260906030642 80 271 3.5 6.1 0.00 0.00 0.00 30 1021.4
20260906030137 79 305 3.5 6.1 0.00 0.00 0.00 30 1021.3
20260906025636 80 293 4.3 6.1 0.00 0.00 0.00 30 1021.3
20260906025136 80 282 4.3 5.2 0.00 0.00 0.00 30 1021.3
20260906024625 80 288 4.3 6.1 0.00 0.00 0.00 30 1021.1
20260906024119 81 270 3.5 5.2 0.00 0.00 0.00 30 1021.0
20260906023615 81 274 2.6 3.5 0.00 0.00 0.00 30 1021.0
20260906023115 81 248 3.5 6.1 0.00 0.00 0.00 30 1020.9
20260906022610 82 268 4.3 6.1 0.00 0.00 0.00 30 1020.9
20260906022106 82 289 4.3 6.1 0.00 0.00 0.00 30 1020.9
20260906021602 82 280 3.5 3.5 0.00 0.00 0.00 30 1020.7
20260906021100 82 293 3.5 5.2 0.00 0.00 0.00 30 1020.7
20260906020554 83 296 3.5 3.5 0.00 0.00 0.00 29 1020.7
20260906020054 83 285 4.3 5.2 0.00 0.00 0.00 29 1020.7
20260906015553 84 262 2.6 3.5 0.00 0.00 0.00 28 1020.7
20260906015047 84 277 1.7 3.5 0.00 0.00 0.00 28 1020.6
20260906014543 85 277 2.6 3.5 0.00 0.00 0.00 27 1020.6
20260906014039 86 278 2.6 5.2 0.00 0.00 0.00 27 1020.6
20260906013533 86 270 3.5 5.2 0.00 0.00 0.00 27 1020.6
20260906013029 86 278 3.5 6.1 0.00 0.00 0.00 27 1020.7
20260906012524 86 263 4.3 7.0 0.00 0.00 0.00 27 1020.7
20260906012023 87 282 3.5 7.0 0.00 0.00 0.00 26 1020.6
20260906011520 87 347 3.5 7.0 0.00 0.00 0.00 26 1020.4
20260906011020 87 243 6.1 7.8 0.00 0.00 0.00 26 1020.4
20260906010515 87 239 2.6 7.0 0.00 0.00 0.00 26 1020.2
20260906010011 88 287 3.5 5.2 0.00 0.00 0.00 26 1020.4
20260906005510 88 251 5.2 7.8 0.00 0.00 0.00 26 1020.6
20260906005009 89 260 5.2 7.0 0.00 0.00 0.00 26 1020.6
20260906004508 89 271 3.5 6.1 0.00 0.00 0.00 25 1020.7
20260906004003 89 296 7.0 8.7 0.00 0.00 0.00 25 1020.9
20260906003459 90 276 4.3 6.1 0.00 0.00 0.00 25 1020.7
20260906002954 89 244 2.6 5.2 0.00 0.00 0.00 25 1020.8
20260906002454 89 293 7.0 7.8 0.00 0.00 0.00 26 1020.7
20260906001950 90 257 3.5 7.0 0.00 0.00 0.00 25 1020.6
20260906001445 89 305 3.5 6.1 0.00 0.00 0.00 26 1020.7
20260906000940 89 242 4.3 6.1 0.00 0.00 0.00 25 1020.6
20260906000436 90 325 4.3 8.7 0.00 0.00 0.00 25 1020.6
20260905235925 90 247 4.3 5.2 0.00 0.00 0.00 25 1020.6
20260905235424 90 308 1.7 3.5 0.00 0.00 0.00 26 1020.6
20260905234920 91 272 5.2 8.7 0.00 0.00 0.00 25 1020.8
20260905234415 89 313 3.5 5.2 0.00 0.00 0.00 25 1020.6
20260905233909 89 314 3.5 6.1 0.00 0.00 0.00 26 1020.3
20260905233405 89 280 6.1 7.0 0.00 0.00 0.00 25 1020.6
20260905232903 89 270 4.3 8.7 0.00 0.00 0.00 25 1020.6
20260905232400 91 299 6.1 9.6 0.00 0.00 0.00 25 1020.4